CDT,Max TemperatureF,Mean TemperatureF,Min TemperatureF,Max Dew PointF,MeanDew PointF,Min DewpointF,Max Humidity, Mean Humidity, Min Humidity, Max Sea Level PressureIn, Mean Sea Level PressureIn, Min Sea Level PressureIn, Max VisibilityMiles, Mean VisibilityMiles, Min VisibilityMiles, Max Wind SpeedMPH, Mean Wind SpeedMPH, Max Gust SpeedMPH,PrecipitationIn, CloudCover, Events, WindDirDegrees
2013-7-1,82,73,64,70,64,61,88,75,54,29.92,29.84,29.78,10,10,4,12,1,,0.00,3,,183
2013-7-2,84,73,62,66,64,59,94,74,48,30.05,29.98,29.91,10,10,5,8,1,,0.00,3,,215
2013-7-3,78,73,68,70,67,64,88,83,69,30.12,30.09,30.04,10,9,4,9,3,,0.14,5,,98
2013-7-4,78,74,69,70,67,64,88,83,61,30.11,30.07,30.03,10,10,3,14,6,22,0.35,7,,119
2013-7-5,75,72,69,70,68,66,94,86,78,30.17,30.12,30.08,10,10,5,9,3,,0.37,7,,127
2013-7-6,73,71,69,70,68,66,94,88,83,30.14,30.11,30.08,10,9,3,8,2,,1.06,6,,83
2013-7-7,82,76,71,72,69,68,94,82,66,30.17,30.13,30.09,10,10,5,8,2,,0.01,5,,170
2013-7-8,84,76,69,73,70,66,94,86,66,30.20,30.16,30.12,10,9,2,13,1,21,0.76,6,Thunderstorm,210
2013-7-9,87,78,69,73,71,68,94,81,58,30.20,30.14,30.07,10,8,0,6,1,,0.01,4,,226
2013-7-10,86,78,71,75,71,66,94,82,66,30.10,30.04,29.95,10,9,3,20,2,33,0.85,3,Thunderstorm,181
2013-7-11,86,78,69,73,69,66,89,80,62,30.04,29.95,29.88,10,10,5,7,3,,0.65,4,Thunderstorm,262
2013-7-12,89,79,69,72,68,64,88,71,49,29.96,29.92,29.89,10,10,2,10,3,,0.00,2,,2
2013-7-13,84,74,64,70,66,61,88,75,58,30.05,29.99,29.94,10,10,3,15,4,16,0.00,3,,84
2013-7-14,87,79,71,72,69,66,89,76,52,30.16,30.09,30.03,10,10,5,14,6,21,0.03,5,,81
2013-7-15,89,81,73,70,68,66,88,71,46,30.27,30.21,30.16,10,10,4,14,7,18,0.16,5,Thunderstorm,90
2013-7-16,89,80,71,72,70,66,94,76,52,30.32,30.27,30.23,10,10,7,12,4,,0.16,3,,71
2013-7-17,93,80,68,73,69,64,94,75,46,30.31,30.23,30.15,10,10,5,14,1,17,0.15,1,Thunderstorm,329
2013-7-18,89,79,69,72,68,64,94,73,49,30.22,30.14,30.06,10,9,3,7,2,,0.03,1,,126
2013-7-19,91,80,69,72,69,64,94,73,43,30.14,30.06,29.98,10,10,2,7,1,,0.00,0,,219
2013-7-20,87,78,69,72,69,66,94,79,55,30.05,30.01,29.94,10,9,3,15,2,25,0.00,1,Thunderstorm,248
2013-7-21,86,78,69,72,69,66,94,83,62,30.05,30.01,29.95,10,9,2,12,2,,2.24,4,Thunderstorm,209
2013-7-22,84,76,68,72,69,66,94,80,65,30.02,29.98,29.90,10,10,3,15,4,17,0.00,4,,239
2013-7-23,73,71,69,70,67,64,94,86,78,30.04,29.95,29.88,10,9,2,13,3,16,1.89,6,Thunderstorm,226
2013-7-24,84,76,69,73,69,66,94,83,62,29.95,29.90,29.85,10,10,5,7,2,,0.14,5,Thunderstorm,276
2013-7-25,84,76,68,70,65,63,94,71,48,30.03,29.97,29.88,10,9,5,9,3,,0.00,0,,331
2013-7-26,87,76,64,70,65,61,94,72,43,30.07,30.02,29.98,10,10,5,8,2,,0.00,1,,233
2013-7-27,84,75,66,68,66,64,94,77,51,30.00,29.96,29.92,10,9,4,10,2,,0.00,2,,235
2013-7-28,84,76,68,70,67,64,88,74,55,30.07,30.00,29.94,10,10,3,7,1,,0.00,3,,331
2013-7-29,84,74,64,64,61,57,94,68,45,30.18,30.13,30.06,10,10,7,7,2,,0.00,0,,20
2013-7-30,89,74,60,72,64,57,89,70,43,30.23,30.16,30.10,10,10,7,8,1,,0.09,1,Thunderstorm,175
2013-7-31,82,76,69,73,69,66,94,84,70,30.16,30.06,29.97,10,9,2,15,4,22,1.92,5,Thunderstorm,121